Location: Bjelajci
(45.0103°N, 16.1758°E)
Time: 04:30:42
(UTC+00:00)

Cosmos 2233 Rocket - Pass Details

Date: 14 July 2020
Orbit: 954 x 990 km, 82.9° (Epoch: 11 August)

Event Time Altitude Azimuth Distance (km) Brightness Sun altitude
Exits shadow 00:55:03 19° 165° (SSE) 2,099 5.3 -18.5°
Maximum altitude 00:59:24 59° 92° (E) 1,120 4.4 -18.1°
Drops below altitude 10° 01:05:32 10° 15° (NNE) 2,738 7.5 -17.6°
Sets 01:08:06 0° 12° (NNE) 3,695 8.4 -17.4°
